,HW,L4,LN,O2
,MC,MC,MC,MC
Date,UG/M3,UG/M3,UG/M3,UG/M3
1/1/2005 0:00,7.4,1.2,,
1/1/2005 1:00,10.3,3.3,,
1/1/2005 2:00,3.3,1.1,,
1/1/2005 3:00,2.4,4,,
1/1/2005 4:00,2.7,5.7,,
1/1/2005 5:00,6.5,4.6,,
1/1/2005 6:00,6.3,5.2,,
1/1/2005 7:00,5.7,5.5,,
1/1/2005 8:00,4.8,0.9,,
1/1/2005 9:00,5.5,3.1,,
1/1/2005 10:00,5.7,2.9,,
1/1/2005 11:00,7.6,4.2,,
1/1/2005 12:00,4.3,1.5,,
1/1/2005 13:00,2.7,4.4,,
1/1/2005 14:00,0.7,5.3,,
1/1/2005 15:00,0.2,3.2,,
1/1/2005 16:00,1,4.1,,
1/1/2005 17:00,2.8,4.7,,
1/1/2005 18:00,4.5,10.2,,
1/1/2005 19:00,3.1,9.8,,
1/1/2005 20:00,4.3,7.8,,
1/1/2005 21:00,10.3,9,,
1/1/2005 22:00,12.1,13.1,,
1/1/2005 23:00,14.6,9.4,,
1/2/2005 0:00,11.5,9.5,,
1/2/2005 1:00,8.2,7.5,,
1/2/2005 2:00,7,6,,
1/2/2005 3:00,7.2,10.7,,
1/2/2005 4:00,7.9,10.5,,
1/2/2005 5:00,3.3,9.8,,
1/2/2005 6:00,3.4,6.6,,
1/2/2005 7:00,1.8,8.3,,
1/2/2005 8:00,1.4,9,,
1/2/2005 9:00,3.6,7.5,,
1/2/2005 10:00,2.5,8,,
1/2/2005 11:00,3.6,8.3,,
1/2/2005 12:00,1.5,10.8,,
1/2/2005 13:00,3.6,12.2,,
1/2/2005 14:00,4.4,8.2,,
1/2/2005 15:00,2.6,6,,
1/2/2005 16:00,4.9,5.2,,
1/2/2005 17:00,8.2,7.4,,
1/2/2005 18:00,11.7,12.5,,
1/2/2005 19:00,15,15.8,,
1/2/2005 20:00,20.2,20.8,,
1/2/2005 21:00,24.8,21.9,,
1/2/2005 22:00,29.3,22.9,,
1/2/2005 23:00,28.5,23.1,,
1/3/2005 0:00,23,22.6,,
1/3/2005 1:00,17.3,21,,
1/3/2005 2:00,8.9,18.8,,
1/3/2005 3:00,7.9,20.7,,
1/3/2005 4:00,12.8,19.9,,
1/3/2005 5:00,19.7,20,,
1/3/2005 6:00,17.6,21.1,,
1/3/2005 7:00,12.5,22.4,,
1/3/2005 8:00,14.4,22.8,,
1/3/2005 9:00,16,31.1,,
1/3/2005 10:00,11.7,34.5,,
1/3/2005 11:00,16.5,27.9,,
1/3/2005 12:00,14.6,19,,
1/3/2005 13:00,12.5,20.4,,
1/3/2005 14:00,5.7,18.2,,
1/3/2005 15:00,6.7,17,,
1/3/2005 16:00,11.6,17.6,,
1/3/2005 17:00,15.8,18.4,,
1/3/2005 18:00,15.2,24.4,,
1/3/2005 19:00,14.9,25.7,,
1/3/2005 20:00,15,26.8,,
1/3/2005 21:00,19.3,25.5,,
1/3/2005 22:00,21,25.7,,
1/3/2005 23:00,25,25,,
1/4/2005 0:00,25.4,18.9,,
1/4/2005 1:00,20.2,8.5,,
1/4/2005 2:00,15.9,8.9,,
1/4/2005 3:00,8.5,12.3,,
1/4/2005 4:00,8,14.8,,
1/4/2005 5:00,3.5,11.7,,
1/4/2005 6:00,9.9,9,,
1/4/2005 7:00,20.5,9.5,,
1/4/2005 8:00,20.9,12.1,,
1/4/2005 9:00,25.7,16.2,,
1/4/2005 10:00,19.4,16.3,,
1/4/2005 11:00,8.2,19.1,,
1/4/2005 12:00,18.4,12.7,,
1/4/2005 13:00,29.3,10.1,,
1/4/2005 14:00,23.9,2.7,,
1/4/2005 15:00,15.2,5.3,,
1/4/2005 16:00,17.7,4.9,,
1/4/2005 17:00,11.8,3,,
1/4/2005 18:00,4.5,3.4,,
1/4/2005 19:00,3.9,3.1,,
1/4/2005 20:00,2.6,2,,
1/4/2005 21:00,4.3,2.8,,
1/4/2005 22:00,4.5,2.8,,
1/4/2005 23:00,4.9,1.4,,
1/5/2005 0:00,3.3,1.2,,
1/5/2005 1:00,4.8,2.3,,
1/5/2005 2:00,4.9,3,,
1/5/2005 3:00,4.1,3.9,,
1/5/2005 4:00,3.4,4.9,,
1/5/2005 5:00,5.6,5.2,,
1/5/2005 6:00,3.7,2.8,,
1/5/2005 7:00,3.7,2.8,,
1/5/2005 8:00,2.9,6.6,,
1/5/2005 9:00,2.1,10.5,,
1/5/2005 10:00,4.4,10.1,,
1/5/2005 11:00,4.8,11.3,,
1/5/2005 12:00,8.2,12.3,,
1/5/2005 13:00,10.5,11.1,,
1/5/2005 14:00,12.1,7.5,,
1/5/2005 15:00,8.9,8.4,,
1/5/2005 16:00,8.6,7.6,,
1/5/2005 17:00,8.2,8.9,,
1/5/2005 18:00,9.9,8.5,,
1/5/2005 19:00,10.7,10.2,,
1/5/2005 20:00,10.3,12.2,,
1/5/2005 21:00,11.3,11.4,,
1/5/2005 22:00,12.5,11.4,,
1/5/2005 23:00,15.3,15.8,,
1/6/2005 0:00,18,14.6,,
1/6/2005 1:00,20.7,15.3,,
1/6/2005 2:00,21.6,17.2,,
1/6/2005 3:00,21.2,19.1,,
1/6/2005 4:00,20.8,16.9,,
1/6/2005 5:00,22.4,15.4,,
1/6/2005 6:00,20.9,17.2,,
1/6/2005 7:00,21.1,16.4,,
1/6/2005 8:00,23.5,15.4,,
1/6/2005 9:00,22,14.2,,
1/6/2005 10:00,21.1,9.5,,
1/6/2005 11:00,11.3,16.8,,
1/6/2005 12:00,4.6,24.2,,
1/6/2005 13:00,3.4,2.9,,
1/6/2005 14:00,4.2,0.7,,
1/6/2005 15:00,1.2,0.9,,
1/6/2005 16:00,1,1.8,,
1/6/2005 17:00,2.1,-0.9,,
1/6/2005 18:00,2,-1.1,,
1/6/2005 19:00,2.6,2.3,,
1/6/2005 20:00,10.3,2.8,,
1/6/2005 21:00,14,4,,
1/6/2005 22:00,11,3.8,,
1/6/2005 23:00,11.9,3.5,,
1/7/2005 0:00,4.3,3.7,,
1/7/2005 1:00,3.9,1.3,,
1/7/2005 2:00,6,2.1,,
1/7/2005 3:00,4.9,3.3,,
1/7/2005 4:00,8.3,3.4,,
1/7/2005 5:00,8.4,3.6,,
1/7/2005 6:00,7.6,7.1,,
1/7/2005 7:00,9.5,20.6,,
1/7/2005 8:00,9,14.4,,
1/7/2005 9:00,12.6,2.6,,
1/7/2005 10:00,11.1,3.1,,
1/7/2005 11:00,8,5.2,,
1/7/2005 12:00,4,7.6,,
1/7/2005 13:00,6.9,9.8,,
1/7/2005 14:00,8.7,8.4,,
1/7/2005 15:00,2.3,9.4,,
1/7/2005 16:00,5.3,10.3,,
1/7/2005 17:00,6.3,9.9,,
1/7/2005 18:00,5.5,5.5,,
1/7/2005 19:00,6.5,3.3,,
1/7/2005 20:00,5.9,1.5,,
1/7/2005 21:00,-2,-0.4,,
1/7/2005 22:00,0.4,-1.8,,
1/7/2005 23:00,-1.3,-0.6,,
1/8/2005 0:00,-0.8,-2.2,,
1/8/2005 1:00,1.7,-1.6,,
1/8/2005 2:00,0.2,-1.6,,
1/8/2005 3:00,-0.1,-2.4,,
1/8/2005 4:00,-2.1,-1.9,,
1/8/2005 5:00,-0.9,0.1,,
1/8/2005 6:00,-1.2,-0.4,,
1/8/2005 7:00,-1.4,0.1,,
1/8/2005 8:00,-1.6,-0.2,,
1/8/2005 9:00,-0.1,-0.8,,
1/8/2005 10:00,-0.3,-1.1,,
1/8/2005 11:00,0.9,-1.9,,
1/8/2005 12:00,-2.5,-1.2,,
1/8/2005 13:00,-1,-1.3,,
1/8/2005 14:00,-1.1,-3.4,,
1/8/2005 15:00,-3.2,-2.4,,
1/8/2005 16:00,0.5,-0.6,,
1/8/2005 17:00,0.3,-0.9,,
1/8/2005 18:00,1.8,-1.4,,
1/8/2005 19:00,2.2,0.4,,
1/8/2005 20:00,0.2,-4,,
1/8/2005 21:00,0.7,1.5,,
1/8/2005 22:00,0.1,-1.4,,
1/8/2005 23:00,-4,-2.5,,
1/9/2005 0:00,-14.3,-2.9,,
1/9/2005 1:00,-0.3,-4,,
1/9/2005 2:00,5.2,-0.7,,
1/9/2005 3:00,9,-5.8,,
1/9/2005 4:00,4.6,-0.3,,
1/9/2005 5:00,-0.7,-5.5,,
1/9/2005 6:00,-1.4,-6.1,,
1/9/2005 7:00,-1.1,0.6,,
1/9/2005 8:00,-0.9,5.7,,
1/9/2005 9:00,-1.4,13.3,,
1/9/2005 10:00,-0.5,13.5,,
1/9/2005 11:00,2.1,11.5,,
1/9/2005 12:00,-0.3,8.3,,
1/9/2005 13:00,-1.6,9.1,,
1/9/2005 14:00,-1.1,14.1,,
1/9/2005 15:00,0.4,13.2,,
1/9/2005 16:00,0.8,17.4,,
1/9/2005 17:00,0.4,46.5,,
1/9/2005 18:00,1.7,65.6,,
1/9/2005 19:00,1.3,8.3,,
1/9/2005 20:00,-0.1,-2.3,,
1/9/2005 21:00,-1.2,4,,
1/9/2005 22:00,0.6,10.9,,
1/9/2005 23:00,0.9,13.5,,
1/10/2005 0:00,8,7.8,,
1/10/2005 1:00,16.9,3.5,,
1/10/2005 2:00,12.6,0.3,,
1/10/2005 3:00,13.4,-3,,
1/10/2005 4:00,11.2,-2.1,,
1/10/2005 5:00,9.3,-0.2,,
1/10/2005 6:00,12.6,2.2,,
1/10/2005 7:00,10,3.1,,
1/10/2005 8:00,12.5,6.8,,
1/10/2005 9:00,14.1,9.8,,
1/10/2005 10:00,7.4,5.9,,
1/10/2005 11:00,9,3.6,,
1/10/2005 12:00,8.8,2.1,,
1/10/2005 13:00,8.3,2.1,,
1/10/2005 14:00,9.1,5.4,,
1/10/2005 15:00,8.1,13.8,,
1/10/2005 16:00,9.1,13.9,,
1/10/2005 17:00,8.3,14,,
1/10/2005 18:00,14.6,12.4,,
1/10/2005 19:00,15.3,14.1,,
1/10/2005 20:00,20.5,9.7,,
1/10/2005 21:00,17.4,16.9,,
1/10/2005 22:00,12.9,21.1,,
1/10/2005 23:00,11.4,18.7,,
1/11/2005 0:00,5.2,10.8,,
1/11/2005 1:00,6.4,0.6,,
1/11/2005 2:00,8.6,-1.7,,
1/11/2005 3:00,8.2,0.2,,
1/11/2005 4:00,10.4,1.3,,
1/11/2005 5:00,10.1,2.7,,
1/11/2005 6:00,11.2,4.3,,
1/11/2005 7:00,3.2,4.6,,
1/11/2005 8:00,3.3,8.1,,
1/11/2005 9:00,7.2,12.2,,
1/11/2005 10:00,5.5,0.5,,
1/11/2005 11:00,6.7,1.4,,
1/11/2005 12:00,3.7,10.1,,
1/11/2005 13:00,-0.6,4.5,,
1/11/2005 14:00,0.5,6.6,,
1/11/2005 15:00,3.9,2.4,,
1/11/2005 16:00,4.1,8.1,,
1/11/2005 17:00,0.8,6.4,,
1/11/2005 18:00,0.2,8.2,,
1/11/2005 19:00,3.2,6.3,,
1/11/2005 20:00,4.8,4.7,,
1/11/2005 21:00,7.4,2.8,,
1/11/2005 22:00,7.9,5.3,,
1/11/2005 23:00,6.2,6.1,,
1/12/2005 0:00,5.2,5.2,,
1/12/2005 1:00,6.2,5.6,,
1/12/2005 2:00,6.4,4.2,,
1/12/2005 3:00,5.1,4.4,,
1/12/2005 4:00,5.9,5.6,,
1/12/2005 5:00,7.5,8.4,,
1/12/2005 6:00,6.1,9.2,,
1/12/2005 7:00,4.3,8.4,,
1/12/2005 8:00,11.7,10.9,,
1/12/2005 9:00,13.8,7.8,,
1/12/2005 10:00,12.4,9.7,,
1/12/2005 11:00,9.1,9.6,,
1/12/2005 12:00,9.3,4.3,,
1/12/2005 13:00,2.2,4.2,,
1/12/2005 14:00,0,5.6,,
1/12/2005 15:00,-0.7,0.9,,
1/12/2005 16:00,0.9,0.3,,
1/12/2005 17:00,3.4,2.8,,
1/12/2005 18:00,2.8,2.7,,
1/12/2005 19:00,3.6,4.3,,
1/12/2005 20:00,7.6,3.8,,
1/12/2005 21:00,10.6,2.3,,
1/12/2005 22:00,10.2,3.2,,
1/12/2005 23:00,7.1,7.8,,
1/13/2005 0:00,6.6,3.2,,
1/13/2005 1:00,4.4,2.8,,
1/13/2005 2:00,1.2,9.1,,
1/13/2005 3:00,1.2,5.9,,
1/13/2005 4:00,0.7,4.5,,
1/13/2005 5:00,1.8,7.2,,
1/13/2005 6:00,4.7,8.1,,
1/13/2005 7:00,4.9,11.4,,
1/13/2005 8:00,8.1,24.5,,
1/13/2005 9:00,11.2,15.3,,
1/13/2005 10:00,5.3,12.1,,
1/13/2005 11:00,8.1,18.4,,
1/13/2005 12:00,9.7,23.5,,
1/13/2005 13:00,5.8,21,,
1/13/2005 14:00,2.8,12.4,,
1/13/2005 15:00,1.4,7.9,,
1/13/2005 16:00,1.9,8.5,,
1/13/2005 17:00,4,13.7,,
1/13/2005 18:00,8.9,12.9,,
1/13/2005 19:00,11,14.8,,
1/13/2005 20:00,11.9,24.7,,
1/13/2005 21:00,15.9,35.2,,
1/13/2005 22:00,9.7,25.1,,
1/13/2005 23:00,10.5,24,,
1/14/2005 0:00,8.3,12.5,,
1/14/2005 1:00,7,12.6,,
1/14/2005 2:00,7.2,16.7,,
1/14/2005 3:00,5.6,14.6,,
1/14/2005 4:00,3.4,16.2,,
1/14/2005 5:00,4.4,15.1,,
1/14/2005 6:00,6.7,12.9,,
1/14/2005 7:00,6.9,13.5,,
1/14/2005 8:00,13.7,17.3,,
1/14/2005 9:00,15.2,28,,
1/14/2005 10:00,16.3,42.3,,
1/14/2005 11:00,14.6,43,,
1/14/2005 12:00,17.5,40.1,,
1/14/2005 13:00,17.2,37,,
1/14/2005 14:00,19.8,36.7,,
1/14/2005 15:00,17,39.6,,
1/14/2005 16:00,16.8,45.8,,
1/14/2005 17:00,17.3,45.5,,
1/14/2005 18:00,19.1,39.2,,
1/14/2005 19:00,23.1,37.7,,
1/14/2005 20:00,27.1,45.8,,
1/14/2005 21:00,27.5,53.9,,
1/14/2005 22:00,28.7,53,,
1/14/2005 23:00,28.8,51,,
1/15/2005 0:00,31.1,48.9,,
1/15/2005 1:00,29.2,50,,
1/15/2005 2:00,30.7,46.2,,
1/15/2005 3:00,31,44.4,,
1/15/2005 4:00,30.9,43.7,,
1/15/2005 5:00,31.5,46.7,,
1/15/2005 6:00,32.3,47.6,,
1/15/2005 7:00,33.5,44.5,,
1/15/2005 8:00,35.3,44.3,,
1/15/2005 9:00,36.3,47.1,,
1/15/2005 10:00,37.3,54.2,,
1/15/2005 11:00,30.7,58.7,,
1/15/2005 12:00,23.7,55.8,,
1/15/2005 13:00,26.1,46.7,,
1/15/2005 14:00,44.5,47.4,,
1/15/2005 15:00,42.2,50.4,,
1/15/2005 16:00,34.4,47.4,,
1/15/2005 17:00,29,48.9,,
1/15/2005 18:00,33.9,53.3,,
1/15/2005 19:00,36.2,56.8,,
1/15/2005 20:00,42,53.6,,
1/15/2005 21:00,47,57.2,,
1/15/2005 22:00,50.5,58.2,,
1/15/2005 23:00,52.8,58.7,,
1/16/2005 0:00,47.9,61.2,,
1/16/2005 1:00,44.8,59.2,,
1/16/2005 2:00,47,62.7,,
1/16/2005 3:00,45.5,61,,
1/16/2005 4:00,44.9,60.5,,
1/16/2005 5:00,44.3,64.1,,
1/16/2005 6:00,42.7,67.7,,
1/16/2005 7:00,37.5,69.6,,
1/16/2005 8:00,41,66,,
1/16/2005 9:00,41.3,69.7,,
1/16/2005 10:00,31.1,71,,
1/16/2005 11:00,22.9,71,,
1/16/2005 12:00,34.9,75.6,,
1/16/2005 13:00,36.8,77.2,,
1/16/2005 14:00,40.1,80.2,,
1/16/2005 15:00,39.7,82.3,,
1/16/2005 16:00,38.8,87.8,,
1/16/2005 17:00,38.5,85,,
1/16/2005 18:00,38.2,81.2,,
1/16/2005 19:00,40.2,84.3,,
1/16/2005 20:00,39.6,86.4,,
1/16/2005 21:00,41.7,92.9,,
1/16/2005 22:00,43.6,94.4,,
1/16/2005 23:00,42,95.6,,
1/17/2005 0:00,37.7,97,,
1/17/2005 1:00,40.4,93.4,,
1/17/2005 2:00,41.5,96.1,,
1/17/2005 3:00,41.2,94,,
1/17/2005 4:00,41.5,95.4,,
1/17/2005 5:00,43.6,99.5,,
1/17/2005 6:00,45,99,,
1/17/2005 7:00,43.8,97,,
1/17/2005 8:00,47.3,97.6,,
1/17/2005 9:00,46.4,96.8,,
1/17/2005 10:00,43.5,92.5,,
1/17/2005 11:00,47.6,89.8,,
1/17/2005 12:00,46.2,93.7,,
1/17/2005 13:00,28.3,91.6,,
1/17/2005 14:00,31.2,79,,
1/17/2005 15:00,33,72.3,,
1/17/2005 16:00,24,31.9,,
1/17/2005 17:00,24.5,34.8,,
1/17/2005 18:00,19.4,84.7,,
1/17/2005 19:00,18.4,72.9,,
1/17/2005 20:00,20.5,83.9,,
1/17/2005 21:00,23.2,91.7,,
1/17/2005 22:00,24.6,94,,
1/17/2005 23:00,24.2,99.3,,
1/18/2005 0:00,25.3,99.2,,
1/18/2005 1:00,23.3,102,,
1/18/2005 2:00,23.7,98.7,,
1/18/2005 3:00,24.7,103,,
1/18/2005 4:00,22.5,99.2,,
1/18/2005 5:00,19.3,97,,
1/18/2005 6:00,17.5,88.4,,
1/18/2005 7:00,23.5,85.3,,
1/18/2005 8:00,29.5,94.6,,
1/18/2005 9:00,30.6,98.4,,
1/18/2005 10:00,34.4,88.8,,
1/18/2005 11:00,37.6,83.3,,
1/18/2005 12:00,35.9,71.1,,
1/18/2005 13:00,37.9,80.3,,
1/18/2005 14:00,43.5,82.5,,
1/18/2005 15:00,43.8,86.1,,
1/18/2005 16:00,41.3,83.6,,
1/18/2005 17:00,35.4,68.3,,
1/18/2005 18:00,34.5,57,,
1/18/2005 19:00,34.3,56.8,,
1/18/2005 20:00,32.1,56.6,,
1/18/2005 21:00,33.1,52.5,,
1/18/2005 22:00,39.2,58.4,,
1/18/2005 23:00,38.3,59.7,,
1/19/2005 0:00,37.3,55.5,,
1/19/2005 1:00,35.2,55.8,,
1/19/2005 2:00,32.6,51.8,,
1/19/2005 3:00,28.1,47,,
1/19/2005 4:00,22,46.4,,
1/19/2005 5:00,20.8,49.7,,
1/19/2005 6:00,19.2,46.9,,
1/19/2005 7:00,18.9,37.1,,
1/19/2005 8:00,27.2,47.6,,
1/19/2005 9:00,46.8,65.9,,
1/19/2005 10:00,53.3,75,,
1/19/2005 11:00,49.5,55.1,,
1/19/2005 12:00,43.9,56.6,,
1/19/2005 13:00,51.3,58.8,,
1/19/2005 14:00,50.9,53.9,,
1/19/2005 15:00,40.5,54.5,,
1/19/2005 16:00,41,55.1,,
1/19/2005 17:00,40.8,55.7,,
1/19/2005 18:00,42.2,57.4,,
1/19/2005 19:00,45.2,64.5,,
1/19/2005 20:00,46.4,60.9,,
1/19/2005 21:00,48.1,55.2,,
1/19/2005 22:00,50.4,57.7,,
1/19/2005 23:00,50.5,53.2,,
1/20/2005 0:00,45.5,50.9,,
1/20/2005 1:00,45.2,48.2,,
1/20/2005 2:00,40.5,46.4,,
1/20/2005 3:00,34.4,49,,
1/20/2005 4:00,33.9,48.3,,
1/20/2005 5:00,32.8,48.3,,
1/20/2005 6:00,35.4,47.6,,
1/20/2005 7:00,34.9,47.1,,
1/20/2005 8:00,47.1,42.4,,
1/20/2005 9:00,70.7,41.1,,
1/20/2005 10:00,67.7,41.6,,
1/20/2005 11:00,76.8,43.7,,
1/20/2005 12:00,76.6,42.9,,
1/20/2005 13:00,59.9,44.1,,
1/20/2005 14:00,52.3,46.2,,
1/20/2005 15:00,52.9,47,,
1/20/2005 16:00,54.3,52.3,,
1/20/2005 17:00,58.3,45,,
1/20/2005 18:00,55.7,38.1,,
1/20/2005 19:00,43,35.8,,
1/20/2005 20:00,34.9,35.8,,
1/20/2005 21:00,31.5,34.1,,
1/20/2005 22:00,26.8,35.7,,
1/20/2005 23:00,28.7,29.5,,
1/21/2005 0:00,32.5,25.2,,
1/21/2005 1:00,33.3,33.9,,
1/21/2005 2:00,28.7,28.1,,
1/21/2005 3:00,19.8,29.5,,
1/21/2005 4:00,21.5,26.7,,
1/21/2005 5:00,22.2,27.4,,
1/21/2005 6:00,21.5,29.5,,
1/21/2005 7:00,19,28.9,,
1/21/2005 8:00,20.1,30.1,,
1/21/2005 9:00,27.8,30.7,,
1/21/2005 10:00,32.2,32.5,,
1/21/2005 11:00,38.7,33,,
1/21/2005 12:00,46.7,39.3,,
1/21/2005 13:00,51.5,34.4,,
1/21/2005 14:00,46.8,29.7,,
1/21/2005 15:00,46.6,30.6,,
1/21/2005 16:00,50.1,32.4,,
1/21/2005 17:00,51.7,33.8,,
1/21/2005 18:00,49,36.6,,
1/21/2005 19:00,43.3,32,,
1/21/2005 20:00,34.6,26.7,,
1/21/2005 21:00,30,25.7,,
1/21/2005 22:00,32.8,26.3,,
1/21/2005 23:00,38.4,22.9,,
1/22/2005 0:00,42.2,23.3,,
1/22/2005 1:00,39.4,25.1,,
1/22/2005 2:00,32.6,23.1,,
1/22/2005 3:00,29.7,23.6,,
1/22/2005 4:00,29.4,23.7,,
1/22/2005 5:00,28.3,23.3,,
1/22/2005 6:00,27.4,20.6,,
1/22/2005 7:00,24.3,19.5,,
1/22/2005 8:00,28,20.8,,
1/22/2005 9:00,26.5,20.6,,
1/22/2005 10:00,27.1,22.6,,
1/22/2005 11:00,37.1,23.9,,
1/22/2005 12:00,42.8,24.3,,
1/22/2005 13:00,43.3,25.5,,
1/22/2005 14:00,40.4,24.4,,
1/22/2005 15:00,36.7,27.8,,
1/22/2005 16:00,39.7,26.2,,
1/22/2005 17:00,45.5,22.2,,
1/22/2005 18:00,46.8,24.5,,
1/22/2005 19:00,49,21.4,,
1/22/2005 20:00,52.7,23.5,,
1/22/2005 21:00,49.5,27,,
1/22/2005 22:00,46.6,20.4,,
1/22/2005 23:00,44.4,19,,
1/23/2005 0:00,49.4,20.3,,
1/23/2005 1:00,48.9,23,,
1/23/2005 2:00,45.4,25.8,,
1/23/2005 3:00,43.8,26,,
1/23/2005 4:00,51.3,24.3,,
1/23/2005 5:00,53.1,27.2,,
1/23/2005 6:00,50.5,25.7,,
1/23/2005 7:00,48.7,26.3,,
1/23/2005 8:00,48.1,25.9,,
1/23/2005 9:00,50.5,26.6,,
1/23/2005 10:00,52.2,24,,
1/23/2005 11:00,54.2,25.9,,
1/23/2005 12:00,58.5,27.2,,
1/23/2005 13:00,58.6,32.4,,
1/23/2005 14:00,52.6,34.6,,
1/23/2005 15:00,42.6,35.7,,
1/23/2005 16:00,43.3,36.1,,
1/23/2005 17:00,45.9,36.4,,
1/23/2005 18:00,46.7,37.4,,
1/23/2005 19:00,45.7,43.1,,
1/23/2005 20:00,44.3,42.3,,
1/23/2005 21:00,44.2,39,,
1/23/2005 22:00,43.3,35.2,,
1/23/2005 23:00,42.2,36.8,,
1/24/2005 0:00,42.4,40.5,,
1/24/2005 1:00,40.8,35.1,,
1/24/2005 2:00,38.9,34.3,,
1/24/2005 3:00,40,35.7,,
1/24/2005 4:00,38.4,40.2,,
1/24/2005 5:00,34,43.6,,
1/24/2005 6:00,31.5,44.4,,
1/24/2005 7:00,29.3,44.5,,
1/24/2005 8:00,28.5,46.8,,
1/24/2005 9:00,33.1,50.1,,
1/24/2005 10:00,38.2,43.1,,
1/24/2005 11:00,42.8,44.5,,
1/24/2005 12:00,46.5,48.7,,
1/24/2005 13:00,47.2,51.7,,
1/24/2005 14:00,51.1,64.4,,
1/24/2005 15:00,49.5,62.5,,
1/24/2005 16:00,46.3,50.4,,
1/24/2005 17:00,47.8,53.4,,
1/24/2005 18:00,49.6,65.6,,
1/24/2005 19:00,46.2,57.6,,
1/24/2005 20:00,43.8,69.4,,
1/24/2005 21:00,42.2,70.1,,
1/24/2005 22:00,44,52.2,,
1/24/2005 23:00,43.8,44,,
1/25/2005 0:00,45.1,41.8,,
1/25/2005 1:00,44.9,48.3,,
1/25/2005 2:00,46.5,50.1,,
1/25/2005 3:00,42.9,41.3,,
1/25/2005 4:00,39.3,43.1,,
1/25/2005 5:00,35.8,41.2,,
1/25/2005 6:00,37.2,41.4,,
1/25/2005 7:00,37.4,40.6,,
1/25/2005 8:00,38.9,38.7,,
1/25/2005 9:00,39.8,35.1,,
1/25/2005 10:00,38.4,33.3,,
1/25/2005 11:00,35.5,33.4,,
1/25/2005 12:00,35.6,34.2,,
1/25/2005 13:00,43.9,33,,
1/25/2005 14:00,56.6,27.5,,
1/25/2005 15:00,55.1,25.2,,
1/25/2005 16:00,47.3,28.3,,
1/25/2005 17:00,42.2,27,,
1/25/2005 18:00,42.4,26,,
1/25/2005 19:00,44.3,30.6,,
1/25/2005 20:00,45,33.1,,
1/25/2005 21:00,43.6,29.1,,
1/25/2005 22:00,44.9,27.5,,
1/25/2005 23:00,46,30.8,,
1/26/2005 0:00,45.1,28.2,,
1/26/2005 1:00,48.2,26.3,,
1/26/2005 2:00,47.2,28.6,,
1/26/2005 3:00,46.7,26.4,,
1/26/2005 4:00,45.4,25.6,,
1/26/2005 5:00,44.4,24.2,,
1/26/2005 6:00,39,24.9,,
1/26/2005 7:00,33.9,29.5,,
1/26/2005 8:00,34.3,29,,
1/26/2005 9:00,40,26.6,,
1/26/2005 10:00,49.7,26.6,,
1/26/2005 11:00,47.8,27.5,,
1/26/2005 12:00,12,27.7,,
1/26/2005 13:00,24.2,28.6,,
1/26/2005 14:00,51.8,32.6,,
1/26/2005 15:00,46.1,31.9,,
1/26/2005 16:00,41,31.1,,
1/26/2005 17:00,41.6,31.4,,
1/26/2005 18:00,44.1,30,,
1/26/2005 19:00,47.5,28.6,,
1/26/2005 20:00,53.8,25.2,,
1/26/2005 21:00,48.3,28.5,,
1/26/2005 22:00,44.5,30,,
1/26/2005 23:00,40.9,30.5,,
1/27/2005 0:00,37.8,31.4,,
1/27/2005 1:00,37.5,28.8,,
1/27/2005 2:00,35.5,28.9,,
1/27/2005 3:00,31.5,28.7,,
1/27/2005 4:00,28.2,31.7,,
1/27/2005 5:00,26.4,33.6,,
1/27/2005 6:00,24,34.5,,
1/27/2005 7:00,21.5,39,,
1/27/2005 8:00,23.4,39.8,,
1/27/2005 9:00,25.3,42.5,,
1/27/2005 10:00,24.9,48.2,,
1/27/2005 11:00,25.2,54.1,,
1/27/2005 12:00,23.3,54.7,,
1/27/2005 13:00,14.7,59.7,,
1/27/2005 14:00,13.2,60.2,,
1/27/2005 15:00,14.3,53.7,,
1/27/2005 16:00,17.7,59.1,,
1/27/2005 17:00,23.4,57.7,,
1/27/2005 18:00,18.1,60.1,,
1/27/2005 19:00,16.9,60.7,,
1/27/2005 20:00,16.5,64.8,,
1/27/2005 21:00,17.3,65.5,,
1/27/2005 22:00,19.1,65,,
1/27/2005 23:00,20.9,64.7,,
1/28/2005 0:00,20.8,64.2,,
1/28/2005 1:00,17.1,66.9,,
1/28/2005 2:00,17.1,64.7,,
1/28/2005 3:00,18.2,61.7,,
1/28/2005 4:00,17.8,62.3,,
1/28/2005 5:00,18.9,63.1,,
1/28/2005 6:00,17,61.2,,
1/28/2005 7:00,17.1,61.4,,
1/28/2005 8:00,19.5,62.3,,
1/28/2005 9:00,18,59.8,,
1/28/2005 10:00,17.2,62.4,,
1/28/2005 11:00,13.2,72.4,,
1/28/2005 12:00,4.8,73,,
1/28/2005 13:00,4.5,59.1,,
1/28/2005 14:00,3.6,53.9,,
1/28/2005 15:00,4.5,40.8,,
1/28/2005 16:00,4.1,42.7,,
1/28/2005 17:00,4.1,48.1,,
1/28/2005 18:00,9.7,59.4,,
1/28/2005 19:00,17.3,53.8,,
1/28/2005 20:00,16.1,49.6,,
1/28/2005 21:00,19.4,43.2,,
1/28/2005 22:00,22,44.4,,
1/28/2005 23:00,23.9,47.4,,
1/29/2005 0:00,26.4,43.9,,
1/29/2005 1:00,27,37.1,,
1/29/2005 2:00,25,32.9,,
1/29/2005 3:00,25.2,35.5,,
1/29/2005 4:00,18.7,33.9,,
1/29/2005 5:00,21.5,33,,
1/29/2005 6:00,19.7,36.5,,
1/29/2005 7:00,14.8,35.3,,
1/29/2005 8:00,15,33.4,,
1/29/2005 9:00,15.1,38.5,,
1/29/2005 10:00,21.7,45.5,,
1/29/2005 11:00,20,50.6,,
1/29/2005 12:00,14.4,50.2,,
1/29/2005 13:00,11.3,55.5,,
1/29/2005 14:00,11.9,59.7,,
1/29/2005 15:00,12.4,59.7,,
1/29/2005 16:00,9.8,54.6,,
1/29/2005 17:00,12.2,55.3,,
1/29/2005 18:00,17.9,58.9,,
1/29/2005 19:00,16.5,60.6,,
1/29/2005 20:00,13.6,57.8,,
1/29/2005 21:00,11.2,53.1,,
1/29/2005 22:00,11.3,40.6,,
1/29/2005 23:00,14,30.9,,
1/30/2005 0:00,14.4,23.2,,
1/30/2005 1:00,13.9,28.5,,
1/30/2005 2:00,10,29.6,,
1/30/2005 3:00,10.4,29.8,,
1/30/2005 4:00,10.5,23.6,,
1/30/2005 5:00,10.4,13.1,,
1/30/2005 6:00,9.3,4.8,,
1/30/2005 7:00,7.1,4.5,,
1/30/2005 8:00,4.8,5.2,,
1/30/2005 9:00,8,6.5,,
1/30/2005 10:00,11.1,7.6,,
1/30/2005 11:00,12.4,6,,
1/30/2005 12:00,8.5,6.3,,
1/30/2005 13:00,5,5.2,,
1/30/2005 14:00,4.2,5.4,,
1/30/2005 15:00,5.6,6.3,,
1/30/2005 16:00,4,3.6,,
1/30/2005 17:00,3.1,5.3,,
1/30/2005 18:00,5.2,4.2,,
1/30/2005 19:00,5.9,3,,
1/30/2005 20:00,4.7,4.7,,
1/30/2005 21:00,3.2,7.2,,
1/30/2005 22:00,3.3,6.7,,
1/30/2005 23:00,6.6,7.9,,
1/31/2005 0:00,10.5,7.1,,
1/31/2005 1:00,11.7,7.4,,
1/31/2005 2:00,10.3,6.7,,
1/31/2005 3:00,8.1,6.9,,
1/31/2005 4:00,7.7,10.2,,
1/31/2005 5:00,7.1,8,,
1/31/2005 6:00,11.8,11.3,,
1/31/2005 7:00,15,13,,
1/31/2005 8:00,21.7,15.5,,
1/31/2005 9:00,20.7,14.2,,
1/31/2005 10:00,16.4,11,,
1/31/2005 11:00,16.4,7.9,,
1/31/2005 12:00,21.6,7.8,,
1/31/2005 13:00,17.9,6.6,,
1/31/2005 14:00,9.9,11.3,,
1/31/2005 15:00,8.7,10.5,,
1/31/2005 16:00,9.4,8.5,,
1/31/2005 17:00,10.3,11.3,,
1/31/2005 18:00,11,11.1,,
1/31/2005 19:00,7.7,13.5,,
1/31/2005 20:00,8.7,14.4,,
1/31/2005 21:00,9,16,,
1/31/2005 22:00,12.9,17.7,,
1/31/2005 23:00,10.9,18.9,,
2/1/2005 0:00,11.1,20.4,,
2/1/2005 1:00,10.2,21,,
2/1/2005 2:00,11.3,27.3,,
2/1/2005 3:00,12.5,25.9,,
2/1/2005 4:00,12.6,22.3,,
2/1/2005 5:00,12.6,24,,
2/1/2005 6:00,11.9,28.9,,
2/1/2005 7:00,13.3,30.6,,
2/1/2005 8:00,14.7,33.2,,
2/1/2005 9:00,20.7,33.7,,
2/1/2005 10:00,20.8,39,,
2/1/2005 11:00,18.6,31.9,,
2/1/2005 12:00,10.4,14.5,,
2/1/2005 13:00,8.8,14.5,,
2/1/2005 14:00,8.1,12,,
2/1/2005 15:00,9.8,20.4,,
2/1/2005 16:00,10.3,11.5,,
2/1/2005 17:00,6.6,11.7,,
2/1/2005 18:00,6.7,15.1,,
2/1/2005 19:00,9.2,16.5,,
2/1/2005 20:00,11.1,19.5,,
2/1/2005 21:00,14.3,20.6,,
2/1/2005 22:00,16.7,21.4,,
2/1/2005 23:00,17.2,16,,
2/2/2005 0:00,17.6,13.5,,
2/2/2005 1:00,11.9,13.2,,
2/2/2005 2:00,10.7,15.6,,
2/2/2005 3:00,11.4,18.4,,
2/2/2005 4:00,13.3,17,,
2/2/2005 5:00,14.2,20.8,,
2/2/2005 6:00,13.3,22.2,,
2/2/2005 7:00,13,21.1,,
2/2/2005 8:00,20.3,21.9,,
2/2/2005 9:00,24.4,28,,
2/2/2005 10:00,22.5,35.1,,
2/2/2005 11:00,19.5,32.2,,
2/2/2005 12:00,25.4,28.7,,
2/2/2005 13:00,24.2,26.4,,
2/2/2005 14:00,18.6,20.7,,
2/2/2005 15:00,17.6,22.3,,
2/2/2005 16:00,16.3,24,,
2/2/2005 17:00,11.5,22.1,,
2/2/2005 18:00,9.7,24.3,,
2/2/2005 19:00,12.7,27.8,,
2/2/2005 20:00,15.7,28.5,,
2/2/2005 21:00,19.3,29.1,,
2/2/2005 22:00,25,32.3,,
2/2/2005 23:00,26.8,36,,
2/3/2005 0:00,26.1,40.7,,
2/3/2005 1:00,25.5,38.3,,
2/3/2005 2:00,19.2,39.1,,
2/3/2005 3:00,18.7,41.3,,
2/3/2005 4:00,17.9,41.8,,
2/3/2005 5:00,19,44.9,,
2/3/2005 6:00,23.5,42.9,,
2/3/2005 7:00,27.8,45.2,,
2/3/2005 8:00,31.5,43.7,,
2/3/2005 9:00,35.4,43.1,,
2/3/2005 10:00,33.3,42.5,,
2/3/2005 11:00,33.3,41.9,,
2/3/2005 12:00,35.8,40.6,,
2/3/2005 13:00,38.2,46.1,,
2/3/2005 14:00,35,37.7,,
2/3/2005 15:00,29.7,32.1,,
2/3/2005 16:00,24.9,33.8,,
2/3/2005 17:00,22.9,34,,
2/3/2005 18:00,22.7,31.9,,
2/3/2005 19:00,22.6,35.9,,
2/3/2005 20:00,23.1,41.8,,
2/3/2005 21:00,29.4,43.2,,
2/3/2005 22:00,34.2,46.1,,
2/3/2005 23:00,34.2,46.9,,
2/4/2005 0:00,32.6,46.9,,
2/4/2005 1:00,29.6,45.5,,
2/4/2005 2:00,25.1,44.7,,
2/4/2005 3:00,18.8,46.5,,
2/4/2005 4:00,13.1,47.8,,
2/4/2005 5:00,17.1,48.6,,
2/4/2005 6:00,27,51.3,,
2/4/2005 7:00,30.2,51.9,,
2/4/2005 8:00,31.9,50.2,,
2/4/2005 9:00,36,55.3,,
2/4/2005 10:00,31.9,61.3,,
2/4/2005 11:00,30.7,64.8,,
2/4/2005 12:00,32.7,71.8,,
2/4/2005 13:00,28.9,71.4,,
2/4/2005 14:00,28.5,66.1,,
2/4/2005 15:00,23.2,63.7,,
2/4/2005 16:00,29.3,71.6,,
2/4/2005 17:00,33.5,66.6,,
2/4/2005 18:00,35,68.3,,
2/4/2005 19:00,37.8,77.4,,
2/4/2005 20:00,42.9,82.8,,
2/4/2005 21:00,48.8,74.3,,
2/4/2005 22:00,52.7,79.8,,
2/4/2005 23:00,45.4,83.3,,
2/5/2005 0:00,37.1,83.5,,
2/5/2005 1:00,27.3,84.2,,
2/5/2005 2:00,19,86.2,,
2/5/2005 3:00,15.1,85.6,,
2/5/2005 4:00,11.6,89.1,,
2/5/2005 5:00,8.8,87.8,,
2/5/2005 6:00,10.5,91.1,,
2/5/2005 7:00,25.8,89.7,,
2/5/2005 8:00,38.6,88.5,,
2/5/2005 9:00,43.9,90.8,,
2/5/2005 10:00,41.8,95.2,,
2/5/2005 11:00,31.2,102.2,,
2/5/2005 12:00,18.6,103.6,,
2/5/2005 13:00,16.3,105.9,,
2/5/2005 14:00,13,107.8,,
2/5/2005 15:00,14.2,104.2,,
2/5/2005 16:00,12.4,101.6,,
2/5/2005 17:00,6.8,65.3,,
2/5/2005 18:00,5.4,66.1,,
2/5/2005 19:00,7.1,94.6,,
2/5/2005 20:00,9,54.3,,
2/5/2005 21:00,15.9,31.4,,
2/5/2005 22:00,14.9,62.3,,
2/5/2005 23:00,14.1,45,,
2/6/2005 0:00,13.7,31.2,,
2/6/2005 1:00,10.9,22.9,,
2/6/2005 2:00,8.6,12.1,,
2/6/2005 3:00,7.7,12.1,,
2/6/2005 4:00,6.9,6.9,,
2/6/2005 5:00,6.2,8.5,,
2/6/2005 6:00,6.7,12.9,,
2/6/2005 7:00,7.4,18,,
2/6/2005 8:00,9.3,25.5,,
2/6/2005 9:00,9.9,25.9,,
2/6/2005 10:00,8.8,28.2,,
2/6/2005 11:00,10.6,23.3,,
2/6/2005 12:00,16.6,25.6,,